Date String (YYYY-MM-DD hh:mm:ss) UTC,Instrument flags,absolute air pressure of the measurement (hPa),sample flow rate (lpm),inlet stack bypass flow (lpm),air temperature of the measurement (°C),ambient temperature measured by the external sensor (°C),aerosol sample conditioner tube jacket temperature (°C),OPC LED temperature (°C),internal box temperature (°C),relative humidity of the measurement (%),span deviation,mass concentration of particles derived from Lorenz-Mie calculation of OPC scattering (μg/m³),mass concentration of particles derived from Lorenz-Mie calculation of OPC scattering (μg/m³),mass concentration of particles derived from Lorenz-Mie calculation of OPC scattering (μg/m³)
DateTimeUTC,F1_M11,P_M11,Q1_M11,Q2_M11,T1_M11,T2_M11,T3_M11,T4_M11,T5_M11,U1_M11,ZSPAN_M11,X0_M11,X2_M11,X1_M11
2023-10-20 04:00:00,SystemResetWarning,0833.9,5.01,000.00,028.5,024.9,000.0,037.0,029.9,11.7,0000.0,0009.95,0002.17,0001.01
2023-10-20 04:01:00,SystemResetWarning,0833.9,5.00,000.00,028.4,025.2,000.0,037.0,029.9,11.7,0000.0,0010.49,0002.26,0001.03
2023-10-20 04:02:00,SystemResetWarning,0833.9,4.99,000.00,028.4,025.6,000.0,037.0,029.9,11.7,0000.0,0010.93,0002.36,0001.07
2023-10-20 04:03:00,SystemResetWarning,0833.9,5.00,000.00,028.4,025.9,000.0,036.9,030.0,11.6,0000.0,0011.19,0002.50,0001.11
2023-10-20 04:04:00,SystemResetWarning,0833.8,5.00,000.00,028.4,026.2,000.0,036.9,030.0,11.7,0000.0,0010.66,0002.56,0001.13
2023-10-20 04:05:00,SystemResetWarning,0833.9,5.00,000.00,028.4,026.4,000.0,036.9,030.1,11.8,0000.0,0010.35,0002.62,0001.12
2023-10-20 04:06:00,SystemResetWarning,0833.9,5.00,000.00,028.4,026.6,000.0,036.9,030.1,11.8,0000.0,0010.53,0002.65,0001.11
2023-10-20 04:07:00,SystemResetWarning,0833.9,5.00,000.00,028.4,026.8,000.0,036.9,030.2,11.8,0000.0,0010.73,0002.65,0001.12
2023-10-20 04:08:00,SystemResetWarning,0833.8,5.00,000.00,028.4,026.9,000.0,036.9,030.2,11.8,0000.0,0011.82,0002.71,0001.13
2023-10-20 04:09:00,SystemResetWarning,0833.8,5.00,000.00,028.5,027.0,000.0,036.9,030.2,11.8,0000.0,0011.97,0002.70,0001.12
2023-10-20 04:10:00,SystemResetWarning,0833.8,4.99,000.00,028.5,027.1,000.0,036.9,030.3,11.7,0000.0,0011.90,0002.61,0001.11
2023-10-20 04:11:00,SystemResetWarning,0833.8,5.00,000.00,028.5,027.2,000.0,037.0,030.3,11.7,0000.0,0011.92,0002.56,0001.10
2023-10-20 04:12:00,SystemResetWarning,0833.8,5.00,000.00,028.5,027.3,000.0,037.0,030.3,11.6,0000.0,0011.76,0002.52,0001.08
2023-10-20 04:13:00,SystemResetWarning,0833.8,5.00,000.00,028.6,027.3,000.0,037.0,030.3,11.6,0000.0,0011.25,0002.47,0001.07
2023-10-20 04:14:00,SystemResetWarning,0833.8,5.00,000.00,028.6,027.4,000.0,037.0,030.4,11.6,0000.0,0010.72,0002.36,0001.04
2023-10-20 04:15:00,SystemResetWarning,0833.8,5.00,000.00,028.6,027.4,000.0,037.0,030.4,11.5,0000.0,0010.49,0002.29,0001.03
2023-10-20 04:16:00,SystemResetWarning,0833.8,5.00,000.00,028.6,027.5,000.0,037.0,030.4,11.5,0000.0,0010.37,0002.21,0001.03
2023-10-20 04:17:00,SystemResetWarning,0833.9,5.00,000.00,028.7,027.5,000.0,037.1,030.4,11.5,0000.0,0010.32,0002.12,0001.04
2023-10-20 04:18:00,SystemResetWarning,0833.7,5.01,000.00,028.7,027.6,000.0,037.1,030.5,11.5,0000.0,0010.71,0002.10,0001.01
2023-10-20 04:19:00,SystemResetWarning,0833.8,5.00,000.00,028.7,027.6,000.0,037.1,030.5,11.5,0000.0,0009.42,0002.02,0000.99
2023-10-20 04:20:00,SystemResetWarning,0833.8,5.00,000.00,028.8,027.6,000.0,037.1,030.5,11.4,0000.0,0009.05,0002.07,0000.98
2023-10-20 04:21:00,SystemResetWarning,0833.8,4.98,000.00,028.8,026.1,000.0,037.1,030.4,11.4,0000.0,0008.80,0002.10,0000.98
2023-10-20 04:22:00,SystemResetWarning,0833.8,5.02,000.00,028.7,024.6,000.0,037.0,030.2,11.4,0000.0,0008.06,0002.08,0000.98
2023-10-20 04:23:00,SystemResetWarning,0833.8,5.01,000.00,028.6,024.4,000.0,037.0,030.0,11.4,0000.0,0007.65,0001.98,0000.97
2023-10-20 04:24:00,SystemResetWarning,0833.7,4.99,000.00,028.5,024.7,000.0,037.0,029.9,11.2,0000.0,0007.58,0002.01,0000.97
2023-10-20 04:25:00,SystemResetWarning,0833.8,5.00,000.00,028.4,025.1,000.0,036.9,029.9,11.1,0000.0,0007.67,0002.00,0000.96
2023-10-20 04:26:00,SystemResetWarning,0833.7,5.00,000.00,028.3,025.4,000.0,036.9,029.9,10.9,0000.0,0007.60,0001.98,0000.96
2023-10-20 04:27:00,SystemResetWarning,0833.8,5.00,000.00,028.3,025.8,000.0,036.9,030.0,10.4,0000.0,0007.33,0001.94,0000.95
2023-10-20 04:28:00,SystemResetWarning,0833.7,5.00,000.00,028.3,026.0,000.0,036.9,030.0,10.1,0000.0,0007.50,0001.94,0000.93
2023-10-20 04:29:00,SystemResetWarning,0833.7,5.00,000.00,028.3,026.3,000.0,036.9,030.0,9.8,0000.0,0007.15,0001.89,0000.92
2023-10-20 04:30:00,SystemResetWarning,0833.7,5.00,000.00,028.3,026.5,000.0,036.9,030.0,9.6,0000.0,0007.46,0001.88,0000.92
2023-10-20 04:31:00,SystemResetWarning,0833.7,4.99,000.00,028.3,026.6,000.0,036.9,030.1,9.6,0000.0,0007.94,0001.81,0000.92
2023-10-20 04:32:00,SystemResetWarning,0833.7,4.99,000.00,028.4,026.7,000.0,036.9,030.1,9.6,0000.0,0008.54,0001.80,0000.92
2023-10-20 04:33:00,SystemResetWarning,0833.7,5.00,000.00,028.4,026.9,000.0,036.9,030.1,9.6,0000.0,0009.03,0001.83,0000.90
2023-10-20 04:34:00,SystemResetWarning,0833.7,5.00,000.00,028.4,027.0,000.0,036.9,030.2,9.6,0000.0,0009.32,0001.84,0000.90
2023-10-20 04:35:00,SystemResetWarning,0833.8,5.00,000.00,028.4,027.0,000.0,036.9,030.2,9.7,0000.0,0009.74,0001.79,0000.89
2023-10-20 04:36:00,SystemResetWarning,0833.8,5.00,000.00,028.4,027.1,000.0,036.9,030.2,9.8,0000.0,0009.69,0001.80,0000.89
2023-10-20 04:37:00,SystemResetWarning,0833.8,5.00,000.00,028.5,027.2,000.0,036.9,030.2,9.5,0000.0,0009.87,0001.80,0000.89
2023-10-20 04:38:00,SystemResetWarning,0833.7,5.00,000.00,028.5,027.2,000.0,036.9,030.2,9.8,0000.0,0010.02,0001.82,0000.88
2023-10-20 04:39:00,SystemResetWarning,0833.7,5.00,000.00,028.5,027.3,000.0,037.0,030.3,10.0,0000.0,0009.91,0001.82,0000.88
2023-10-20 04:40:00,SystemResetWarning,0833.7,5.00,000.00,028.5,027.3,000.0,037.0,030.3,10.2,0000.0,0009.11,0001.83,0000.89
2023-10-20 04:41:00,SystemResetWarning,0833.7,5.00,000.00,028.6,027.3,000.0,037.0,030.3,10.4,0000.0,0009.26,0001.77,0000.88
2023-10-20 04:42:00,SystemResetWarning,0833.7,5.00,000.00,028.6,027.4,000.0,037.0,030.3,10.5,0000.0,0008.91,0001.72,0000.86
2023-10-20 04:43:00,SystemResetWarning,0833.7,5.00,000.00,028.6,027.4,000.0,037.0,030.3,10.6,0000.0,0009.18,0001.72,0000.86
2023-10-20 04:44:00,SystemResetWarning,0833.7,5.00,000.00,028.6,027.5,000.0,037.0,030.4,10.7,0000.0,0009.33,0001.73,0000.87
2023-10-20 04:45:00,SystemResetWarning,0833.7,5.00,000.00,028.7,027.5,000.0,037.0,030.4,10.7,0000.0,0009.44,0001.77,0000.87
2023-10-20 04:46:00,SystemResetWarning,0833.8,5.00,000.00,028.7,027.5,000.0,037.1,030.4,10.7,0000.0,0009.59,0001.77,0000.87
2023-10-20 04:47:00,SystemResetWarning,0833.8,5.00,000.00,028.7,027.5,000.0,037.1,030.4,10.3,0000.0,0009.51,0001.78,0000.88
2023-10-20 04:48:00,SystemResetWarning,0833.8,5.00,000.00,028.7,027.6,000.0,037.1,030.5,9.7,0000.0,0009.29,0001.81,0000.88
2023-10-20 04:49:00,SystemResetWarning,0833.8,5.01,000.00,028.8,027.6,000.0,037.1,030.5,9.6,0000.0,0009.19,0001.82,0000.89
2023-10-20 04:50:00,SystemResetWarning,0833.8,5.01,000.00,028.8,027.6,000.0,037.2,030.5,9.6,0000.0,0009.19,0001.77,0000.89
2023-10-20 04:51:00,SystemResetWarning,0833.8,5.00,000.00,028.8,027.6,000.0,037.2,030.5,9.7,0000.0,0009.75,0001.74,0000.90
2023-10-20 04:52:00,SystemResetWarning,0833.8,5.00,000.00,028.8,027.6,000.0,037.2,030.5,9.7,0000.0,0009.26,0001.79,0000.91
2023-10-20 04:53:00,SystemResetWarning,0833.8,5.00,000.00,028.8,027.7,000.0,037.2,030.5,9.7,0000.0,0009.04,0001.83,0000.92
2023-10-20 04:54:00,SystemResetWarning,0833.8,5.00,000.00,028.9,027.7,000.0,037.2,030.6,9.8,0000.0,0008.50,0001.86,0000.93
2023-10-20 04:55:00,SystemResetWarning,0833.8,5.00,000.00,028.9,027.7,000.0,037.2,030.6,9.9,0000.0,0008.13,0001.82,0000.92
2023-10-20 04:56:00,SystemResetWarning,0833.7,4.98,000.00,028.9,026.6,000.0,037.2,030.5,9.9,0000.0,0007.64,0001.77,0000.91
2023-10-20 04:57:00,SystemResetWarning,0833.7,5.00,000.00,028.8,024.7,000.0,037.1,030.3,9.8,0000.0,0006.65,0001.76,0000.91
2023-10-20 04:58:00,SystemResetWarning,0833.6,5.01,000.00,028.7,024.3,000.0,037.1,030.1,9.9,0000.0,0007.69,0001.77,0000.90
2023-10-20 04:59:00,SystemResetWarning,0833.6,5.00,000.00,028.5,024.5,000.0,037.1,029.9,9.8,0000.0,0008.21,0001.78,0000.90
